GFSSW_850_thetae_129.txt.gz
Theta_e
317 316 312 307 318 323 324 321 321 323 321 318 312 311 310 312 315 317 322 318 318 314 311 311 315 313 315 317 316 317 323 324 323 323 322 320 320 318 318 320 322 323 322 328 338
318 317 316 307 309 318 322 321 318 318 317 314 310 310 310 310 310 310 317 314 312 313 311 312 315 314 316 318 317 319 323 324 322 321 321 320 318 317 317 319 320 322 322 333 335
319 317 317 315 307 310 316 319 314 314 313 311 309 309 310 309 310 311 312 312 311 310 311 312 314 314 316 317 317 319 323 320 318 318 320 319 319 318 318 319 319 319 324 333 335
319 317 317 316 314 307 308 314 311 312 311 309 309 309 309 308 313 311 312 311 310 310 310 312 313 315 316 317 317 319 316 318 316 315 319 319 318 318 319 319 318 319 323 331 327
320 318 317 316 315 313 307 308 311 309 314 309 309 309 308 310 312 311 309 310 309 309 310 313 314 315 316 316 315 317 315 315 315 315 318 317 318 319 318 318 316 317 324 330 333
318 318 316 316 316 316 313 307 308 308 309 310 309 308 308 311 310 309 311 309 309 309 312 313 314 314 315 315 316 316 314 313 315 315 315 318 317 316 318 316 315 316 322 329 330
316 318 316 316 316 316 316 308 308 308 308 309 308 309 310 311 309 308 309 310 309 311 313 313 313 313 314 313 312 314 315 314 314 314 314 315 316 317 314 313 314 316 319 323 328
314 317 316 316 316 316 315 309 308 308 308 308 307 307 310 309 308 308 309 311 311 311 312 312 312 313 314 312 312 314 316 316 314 314 313 314 320 318 313 312 313 314 316 320 324
313 315 316 315 315 315 315 310 308 308 308 307 307 310 310 307 308 309 311 312 311 312 311 312 312 314 313 315 314 314 315 316 313 314 314 314 317 314 312 312 313 314 314 316 319
313 315 316 315 314 315 315 309 308 307 307 307 311 308 308 309 308 310 311 312 311 310 311 312 313 314 315 315 314 314 315 315 315 314 313 314 315 313 313 313 314 314 313 313 314
312 314 315 314 314 314 313 310 311 313 311 309 310 309 308 308 308 310 311 311 312 312 313 313 314 314 314 315 315 316 315 314 314 312 314 315 315 315 314 314 314 315 314 313 313
313 314 315 314 313 313 311 311 310 310 312 309 309 308 308 310 310 310 310 312 312 313 313 313 314 315 315 315 314 315 314 314 312 312 314 315 314 315 315 314 314 315 315 315 314
312 312 315 314 313 314 310 310 309 309 308 311 312 310 309 309 310 310 311 312 313 313 313 313 313 314 314 313 313 314 314 314 314 312 312 313 314 315 315 314 314 314 314 313 312
313 314 314 313 313 314 313 310 308 308 310 309 311 309 309 311 311 310 311 312 312 313 313 312 312 313 313 313 313 313 313 313 313 314 313 312 313 316 315 313 312 312 312 312 312
313 312 313 310 313 314 312 308 307 308 313 310 310 310 310 311 310 310 310 309 312 313 312 312 311 312 313 313 313 313 312 313 313 313 313 313 312 314 313 313 313 312 313 312 312
314 313 313 312 312 312 309 309 310 313 314 310 310 311 311 311 311 309 310 309 310 311 311 312 309 312 313 311 312 311 312 312 313 313 312 313 313 313 314 313 314 312 312 312 311
312 313 313 312 313 310 308 309 313 313 311 313 310 311 310 311 311 311 311 310 311 311 311 311 310 309 310 311 311 312 313 313 312 312 312 311 313 314 315 311 312 313 312 311 310
313 314 312 313 312 308 308 312 313 311 310 311 310 311 311 311 311 311 311 311 310 311 311 311 311 311 310 312 312 312 313 314 315 314 314 309 312 314 314 309 310 312 312 311 310
314 312 314 313 311 309 312 313 313 312 312 313 311 311 310 310 310 311 311 312 311 311 311 311 312 310 310 310 312 312 312 313 312 310 315 314 313 313 312 311 310 312 311 310 310
314 313 314 312 309 310 312 313 311 311 312 311 311 311 311 311 311 311 311 311 312 311 311 311 312 311 309 310 311 312 312 311 313 320 317 312 313 314 314 312 311 311 310 310 309
314 315 313 312 307 310 311 311 311 310 312 311 312 311 311 311 311 311 311 311 312 311 310 311 312 312 310 311 311 310 311 311 312 313 317 314 312 313 313 314 313 311 311 310 309
310 306 312 310 308 308 310 311 311 311 312 312 313 312 312 312 311 311 311 311 311 311 310 310 313 314 311 311 312 311 311 312 313 313 312 314 313 310 311 314 313 312 311 310 308
301 301 309 309 308 307 311 312 311 312 313 313 313 312 312 312 312 312 311 310 310 311 311 311 316 317 312 311 312 312 311 312 312 315 320 316 313 312 310 312 313 312 311 309 308
300 304 301 307 309 309 310 313 312 312 312 313 314 313 312 312 312 313 312 311 309 311 310 309 314 313 313 312 312 312 312 311 312 320 313 314 313 313 312 312 312 311 310 308 306
300 301 301 307 308 310 310 311 312 313 313 313 314 314 312 314 312 313 312 314 309 309 310 311 314 312 312 312 313 314 313 313 311 312 313 312 312 312 313 313 312 311 309 307 306
299 301 300 303 306 309 310 311 310 312 313 314 313 314 314 314 313 313 312 313 313 311 311 311 315 313 311 312 312 314 313 313 312 311 312 312 312 313 313 312 312 311 309 308 306
299 300 301 301 306 309 309 310 311 311 309 312 313 314 315 315 313 313 312 312 313 312 311 312 313 314 314 313 313 312 311 313 313 312 312 311 312 312 312 312 312 311 309 308 308

GFSSW_850_thetae_132.txt.gz
Theta_e
318 318 316 314 316 322 326 327 327 327 326 321 317 314 311 313 315 315 317 320 320 313 314 316 315 315 314 318 318 317 322 325 324 322 320 320 319 319 320 320 322 322 327 333 338
318 318 317 316 314 320 324 326 323 325 325 319 314 311 310 310 312 316 318 319 319 318 311 311 315 314 315 317 317 319 323 325 323 321 319 319 319 318 318 321 322 322 335 334 333
318 319 317 316 314 317 321 326 324 323 322 319 315 310 310 310 311 312 315 318 318 313 313 313 315 315 315 317 318 319 322 320 318 319 320 320 318 317 317 318 320 323 335 336 330
316 319 317 316 315 316 318 323 325 324 315 315 311 309 309 309 312 312 312 314 312 310 310 311 314 315 315 316 317 317 316 318 317 318 319 318 318 318 318 318 319 319 322 332 324
315 319 318 317 316 315 318 318 323 321 319 310 309 309 309 309 313 311 310 312 311 309 309 311 314 315 316 316 315 315 315 316 316 317 319 318 318 318 318 317 318 321 323 333 327
314 319 317 317 316 315 316 318 315 321 312 310 309 309 309 311 311 311 311 310 311 310 310 313 314 314 314 315 315 316 315 315 315 316 317 318 317 317 318 318 316 318 324 329 329
314 317 317 317 316 315 316 316 313 311 320 310 309 308 310 311 310 310 309 310 309 309 311 313 314 314 314 313 313 315 314 314 314 315 314 315 315 315 317 317 316 317 323 328 330
313 314 317 316 316 315 316 316 310 310 309 311 315 308 311 310 310 309 309 311 309 311 313 313 314 313 314 312 313 314 315 315 314 314 313 314 319 316 314 313 315 316 318 322 327
313 315 317 316 316 316 316 315 311 309 309 308 308 310 311 309 310 309 310 311 310 311 312 313 313 314 313 313 313 313 314 316 313 314 313 313 317 313 313 313 313 314 315 318 322
313 314 317 316 316 316 315 314 310 309 308 308 310 308 309 309 309 309 311 311 311 311 311 312 314 314 313 312 312 313 312 314 314 312 313 312 313 312 312 313 313 314 314 315 318
313 314 317 316 316 315 314 310 311 312 310 309 310 309 309 310 309 310 311 311 311 311 312 313 312 312 312 313 313 314 312 313 312 312 313 313 313 313 313 313 313 314 314 313 314
314 313 317 316 316 315 313 311 310 310 311 311 310 310 310 310 310 311 311 312 312 311 312 313 312 314 313 313 313 313 313 313 312 312 313 313 312 312 313 313 314 314 315 314 313
314 313 316 315 315 314 312 310 310 309 310 312 311 310 309 310 310 311 311 312 312 311 312 312 313 314 313 313 313 313 314 312 313 312 312 312 312 312 312 314 314 314 314 315 314
313 314 315 315 315 314 312 310 310 309 310 311 311 309 309 310 311 310 311 312 312 312 311 312 312 312 313 313 313 313 312 312 312 311 310 311 308 311 311 311 312 314 314 314 314
312 314 315 314 313 314 311 311 309 309 312 310 310 310 309 311 310 310 311 311 312 312 312 312 311 312 313 313 312 313 311 312 313 313 312 311 309 308 311 311 310 312 313 312 312
314 313 315 314 314 313 310 310 309 313 314 310 310 311 312 311 310 309 310 309 311 312 311 310 310 312 312 311 311 311 311 311 312 310 310 310 309 309 310 310 310 311 312 312 312
312 313 314 314 314 313 309 309 310 313 311 311 310 311 310 311 311 310 310 309 310 310 310 310 310 309 310 310 310 311 311 311 310 310 311 309 309 310 312 311 311 309 312 312 312
314 313 313 313 313 312 309 310 313 311 312 311 310 310 310 310 311 310 310 309 309 309 310 310 310 308 309 311 310 310 310 312 312 313 310 308 308 310 311 310 311 312 312 312 311
313 315 314 313 313 311 310 311 310 311 312 311 310 311 310 310 310 310 309 310 309 309 309 310 311 309 309 310 310 310 311 312 310 305 312 310 310 311 311 310 310 312 312 311 310
314 314 314 313 311 310 311 311 311 311 312 310 311 311 311 310 311 311 310 310 310 309 309 310 311 310 309 310 310 310 310 310 311 309 312 309 311 310 311 310 308 310 311 311 310
314 315 314 312 309 309 311 310 311 311 312 311 311 311 310 311 310 310 310 310 310 309 309 310 313 311 309 309 310 309 310 310 310 312 313 311 308 310 309 309 308 308 311 311 310
311 311 313 311 308 308 309 310 310 311 312 311 312 311 310 310 310 310 310 310 311 310 309 310 313 311 310 311 311 310 310 310 309 310 308 311 309 310 310 313 311 311 311 311 310
302 304 312 310 308 308 309 311 310 311 312 311 313 312 311 310 310 310 310 310 311 310 309 310 313 311 311 311 311 311 309 310 309 310 308 307 309 310 309 311 312 311 311 311 310
301 304 304 309 309 309 309 310 311 311 313 312 312 312 312 311 311 310 312 310 310 310 310 309 314 310 309 309 310 310 309 309 310 310 310 309 309 310 310 310 312 312 311 310 309
300 301 301 307 309 309 310 310 311 312 312 312 313 313 312 312 311 312 313 312 309 310 310 309 307 309 308 310 310 308 308 309 309 309 309 309 309 310 308 308 311 312 311 310 309
299 300 300 306 308 309 310 310 311 312 312 313 314 313 311 312 311 312 311 312 310 310 310 310 308 308 305 310 311 311 311 309 309 309 309 309 308 309 311 312 312 311 311 310 309
300 300 300 306 308 309 309 311 311 312 312 312 313 313 312 313 312 312 312 312 311 310 310 310 306 307 304 309 309 309 309 310 310 310 309 309 310 309 308 309 311 311 311 310 310

GFSSW_850_thetae_135.txt.gz
Theta_e
319 318 317 316 318 323 325 327 327 328 328 328 327 329 330 327 316 317 322 327 325 313 314 316 316 315 314 317 317 318 316 319 321 317 317 320 318 319 320 321 322 325 330 330 335
320 318 318 317 316 321 324 326 326 328 329 328 327 323 313 312 315 315 322 321 326 314 313 316 321 323 314 317 316 316 317 321 317 316 316 318 319 318 319 322 326 330 332 335 336
314 320 319 317 316 317 322 324 326 327 328 323 319 313 310 310 311 316 319 319 319 316 311 313 315 314 315 317 317 317 318 315 317 319 319 317 317 317 318 318 322 331 336 337 336
314 314 319 318 316 315 319 323 325 325 327 323 317 311 309 309 312 312 313 318 320 315 317 313 315 315 315 315 316 316 316 317 316 317 319 316 317 316 318 318 319 317 328 335 336
314 314 319 318 317 316 316 321 324 325 326 323 322 313 309 309 312 310 312 314 314 311 314 312 314 315 313 315 315 315 314 316 316 317 318 317 316 316 317 318 319 319 324 326 330
315 313 316 319 317 316 315 320 322 323 325 318 310 309 308 309 311 311 310 312 313 311 310 311 314 314 314 314 314 314 314 314 315 316 317 316 316 317 317 318 320 322 323 324 321
314 314 316 319 317 316 315 319 321 319 322 322 310 308 310 310 311 311 310 311 311 311 310 311 313 314 314 312 313 314 312 313 314 315 315 316 315 315 317 316 322 323 325 326 326
314 313 314 317 317 316 315 318 319 314 316 319 312 309 309 310 310 310 310 309 309 309 310 312 313 314 314 312 313 313 311 312 312 313 313 314 315 314 316 317 316 323 326 327 326
313 313 315 318 317 315 315 316 317 313 311 312 316 309 309 310 310 309 309 310 310 311 313 313 313 313 313 310 310 311 311 313 312 312 311 313 314 314 314 316 315 316 319 325 327
314 313 315 315 316 315 315 316 314 311 311 313 313 312 314 309 310 310 310 310 311 312 312 313 313 310 309 309 309 311 311 312 312 311 311 311 311 311 312 312 312 313 315 318 321
311 315 314 314 316 316 316 313 311 310 311 311 312 312 311 311 309 309 311 311 311 311 309 311 309 310 309 310 311 310 311 311 311 311 312 311 310 309 311 311 311 312 313 314 317
310 314 315 317 317 316 315 310 309 309 312 311 310 310 310 311 310 310 311 311 311 309 309 309 309 309 310 310 312 312 312 310 311 311 311 311 310 309 310 311 312 312 313 313 315
310 315 314 317 317 316 314 310 309 309 309 311 310 309 310 310 310 310 311 312 309 308 308 310 310 311 311 311 311 311 311 309 311 311 311 311 309 311 311 312 313 313 313 314 313
312 315 314 316 316 315 312 309 309 309 310 311 311 310 309 310 310 310 311 312 310 309 308 309 310 311 311 311 311 311 311 311 310 309 308 308 306 306 308 310 309 313 313 314 313
312 314 316 317 316 314 311 309 309 309 309 310 310 310 309 310 310 310 311 311 309 309 308 310 309 310 312 311 311 311 310 310 310 309 309 309 306 305 308 309 308 310 313 313 314
314 314 314 317 316 314 310 310 310 312 311 310 310 311 311 311 310 309 310 310 311 309 308 309 310 310 310 310 310 308 309 309 308 307 308 307 306 306 308 309 308 310 313 313 312
313 313 314 316 315 313 310 310 309 309 309 310 309 310 309 310 309 309 308 307 308 309 308 308 309 308 310 310 309 309 308 308 309 308 309 308 307 308 308 309 308 308 311 312 312
314 314 314 315 314 312 311 309 308 308 310 309 309 309 309 310 309 308 308 309 306 307 308 308 309 308 308 309 309 308 308 309 310 311 308 306 307 309 308 309 311 311 311 311 311
311 314 315 315 313 310 309 310 308 308 310 310 309 310 308 309 310 308 308 309 308 305 307 308 309 308 308 309 310 309 309 309 308 301 310 307 307 308 309 308 309 310 311 311 311
312 314 315 314 313 309 309 309 308 308 309 309 309 308 309 309 309 309 308 308 308 306 308 308 309 309 308 309 309 309 308 310 308 306 308 307 308 308 309 308 306 308 310 311 311
314 314 314 313 310 309 310 309 309 309 310 309 309 309 308 309 309 309 308 309 308 308 307 308 309 310 308 308 308 308 308 309 309 309 309 308 306 305 308 308 306 307 310 311 311
314 311 313 313 310 308 309 308 309 309 310 309 308 309 308 309 309 309 309 309 309 309 307 309 309 310 308 309 310 308 309 308 309 308 307 309 308 308 308 310 308 309 309 310 310
302 307 313 311 309 308 308 308 309 310 309 309 309 310 309 309 310 309 308 309 309 308 309 310 309 308 310 309 310 310 309 308 307 306 308 306 309 307 309 310 311 310 310 310 310
301 305 305 311 309 309 310 308 309 310 310 310 311 310 309 309 309 310 309 309 309 309 309 310 311 308 308 308 309 309 309 308 309 309 308 307 309 310 308 309 310 310 311 311 310
300 301 301 308 308 309 309 308 309 310 311 310 311 310 309 310 310 309 312 309 308 309 309 310 305 308 307 308 308 308 308 308 309 310 308 309 307 308 305 306 309 311 311 311 310
300 300 300 306 308 308 310 309 309 310 311 311 310 310 310 309 309 310 310 309 309 308 308 308 302 304 302 308 309 310 307 309 309 309 307 308 307 306 308 310 309 311 311 311 310
299 299 302 307 308 309 310 310 309 309 310 311 310 311 310 309 310 310 310 309 309 309 308 308 304 301 299 304 306 304 308 307 307 308 308 308 309 308 306 307 309 310 310 311 311

GFSSW_850_thetae_141.txt.gz
Theta_e
313 312 313 320 320 317 314 318 324 327 325 323 321 321 322 324 325 326 327 330 332 334 331 315 314 314 315 317 317 317 314 316 316 315 317 317 316 319 320 329 328 327 326 325 334
313 314 313 315 320 317 315 320 321 326 324 324 322 322 324 325 325 326 328 329 332 330 318 315 315 314 315 316 316 315 313 315 315 314 314 316 317 318 320 325 329 328 329 329 335
313 314 313 313 316 318 316 320 326 322 325 325 324 324 325 326 319 325 328 329 330 331 323 314 316 321 325 322 316 315 314 314 315 316 316 317 316 318 320 319 326 326 330 332 334
310 312 313 313 313 319 316 320 322 326 326 326 325 324 326 326 325 323 329 329 328 314 314 314 316 321 315 318 319 315 315 314 315 316 316 314 317 318 320 320 320 322 322 330 334
310 312 312 312 315 319 317 318 322 323 325 326 325 325 324 319 321 312 325 325 326 315 312 314 319 318 317 315 314 313 314 314 314 315 316 316 314 316 318 317 319 324 327 328 334
309 309 312 313 313 319 317 316 322 323 324 325 324 325 325 313 317 311 317 319 325 321 313 314 316 317 317 315 317 313 313 313 314 314 314 313 313 315 317 316 320 325 327 328 332
309 308 309 311 312 319 317 315 320 323 323 323 322 322 321 319 319 310 314 320 319 317 315 313 315 317 318 318 316 317 313 312 313 314 313 314 314 313 316 316 322 327 327 328 330
308 308 307 313 311 313 318 315 317 321 323 321 313 310 310 315 310 310 311 317 316 317 314 312 314 314 314 313 311 311 310 312 311 313 312 313 313 313 315 317 325 330 329 329 329
306 307 308 310 314 313 317 316 316 320 322 316 311 310 311 314 312 310 311 314 313 310 310 310 313 313 311 309 311 309 311 311 312 311 311 313 313 313 314 320 325 329 328 329 330
304 306 307 310 314 313 317 315 316 319 319 314 311 312 312 313 313 310 310 312 312 309 310 311 312 308 305 308 317 311 311 311 311 311 310 312 311 310 312 317 321 324 327 329 328
305 304 306 311 313 312 317 317 316 312 312 312 312 314 315 312 311 310 310 310 310 311 308 310 308 308 307 307 308 309 310 312 310 310 310 310 311 309 309 310 315 320 324 325 323
303 304 305 308 313 311 316 316 315 313 313 313 313 312 311 312 310 310 310 310 309 307 307 308 309 308 308 308 308 309 309 309 310 310 310 310 309 307 308 309 312 314 318 322 322
303 304 305 308 311 314 316 315 314 314 313 311 312 312 312 310 310 311 310 310 307 307 307 308 309 308 308 309 309 309 309 308 310 309 309 310 309 309 308 309 311 311 312 313 315
303 304 305 306 308 314 317 315 314 315 311 311 312 312 314 314 315 310 310 310 307 307 306 308 308 308 308 309 308 308 308 309 308 309 310 307 309 306 306 307 307 311 311 313 313
302 304 305 306 310 313 316 314 313 314 317 311 310 310 314 317 315 313 310 310 307 306 306 307 307 307 309 308 307 308 307 308 308 307 308 307 306 306 305 305 305 309 313 313 313
303 304 305 306 309 316 315 313 311 310 312 310 310 309 311 310 314 314 311 310 309 307 307 306 307 307 308 307 307 306 306 305 304 305 308 306 306 306 304 306 306 307 311 314 314
302 304 308 306 309 315 314 310 309 313 309 309 309 309 312 309 310 312 311 311 309 307 307 307 307 306 308 308 307 308 306 307 308 307 309 304 305 308 306 304 305 306 309 310 311
301 305 310 306 308 314 310 309 312 309 308 307 308 309 310 308 309 314 312 312 311 306 306 307 309 306 306 307 306 305 307 307 309 308 307 305 307 307 305 309 308 308 309 310 311
302 306 310 306 309 313 309 311 309 308 307 309 308 309 307 309 308 310 313 314 312 307 307 306 307 307 307 306 308 306 307 306 307 297 305 305 304 305 306 304 306 309 309 309 310
303 308 310 306 313 310 309 312 306 306 307 308 309 308 309 309 308 310 310 312 312 309 308 305 308 307 307 308 308 307 307 309 305 307 308 306 306 306 307 307 305 305 308 310 310
303 309 309 307 309 309 310 310 306 307 308 308 307 308 308 309 308 309 309 308 311 307 305 305 307 307 307 307 307 307 306 306 306 307 308 305 305 303 308 307 305 306 309 310 311
303 309 311 311 307 304 309 307 306 307 308 306 306 306 307 308 307 308 308 307 310 306 308 308 307 307 307 307 306 307 307 308 310 308 305 307 306 305 303 303 307 307 309 311 311
303 305 312 310 308 306 309 308 307 308 308 307 306 306 307 308 308 308 307 307 308 307 309 308 308 308 308 308 308 308 306 306 304 305 306 307 307 303 305 307 307 307 309 309 310
300 305 305 311 307 307 309 309 307 308 307 307 305 306 307 307 306 307 307 307 308 308 309 309 308 309 310 309 308 308 307 305 307 306 305 306 307 307 306 307 308 309 309 309 310
299 302 301 310 304 308 309 309 308 308 307 307 307 307 307 307 307 307 307 307 307 308 309 309 309 306 306 307 308 308 308 307 308 309 309 310 306 306 304 304 307 310 309 310 310
299 299 300 306 307 307 310 309 308 307 307 308 307 306 307 306 307 307 306 307 307 307 307 305 302 304 301 306 306 307 308 307 308 309 308 306 305 305 307 307 308 309 309 310 310
298 299 301 305 307 309 309 309 309 308 308 308 306 305 306 305 307 308 309 308 306 307 306 306 302 304 299 302 304 306 307 308 308 308 308 307 308 303 303 304 307 309 310 310 310